Location: Krakow
(50.0830°N, 19.9170°E)
Time: 05:45:58
(UTC+02:00)

Tiros 1 - Pass Details

Date: 12 February 2023
Orbit: 627 x 662 km, 48.4° (Epoch: 25 March)

Event Time Altitude Azimuth Distance (km) Brightness Sun altitude
Rises 01:59:20 0° 281° (W) 2,916 - -45.8°
Reaches altitude 10° 02:01:48 10° 272° (W) 2,010 - -45.5°
Maximum altitude 02:05:58 34° 208° (SSW) 1,036 - -45.0°
Drops below altitude 10° 02:10:11 10° 143° (SE) 2,019 - -44.5°
Sets 02:12:39 0° 134° (SE) 2,931 - -44.2°
